Flag for U.S.A. Weather past 2 weeks in Gloucester, Massachusetts, U.S.A.

Now
64 °F

Clear.


Feels Like: 64 °F
Forecast: 60 / 68 °F
Wind: 8 mph from Northwest

Location: Beverly Municipal Airport

Current Time: Aug 28, 2014 at 10:25:38 PM

Latest Report: Aug 28, 2014 at 9:53 PM


Visibility: 10 mi

Pressure: 29.93 "Hg

Humidity: 56%

Dew point: 48 °F

Location of GloucesterLocation

Historic Weather in Gloucester — Graph

°F

Gloucester temperature yesterday

Maximum temperature yesterday: 89 °F (at 3:53 PM)
Minimum temperature yesterday: 65 °F (at 4:53 AM)
Average temperature yesterday: 76 °F

Past Weeks' High & Low Weather Summary

 TemperatureHumidityPressure
High89 °F (Aug 27, 3:53 PM)97% (Aug 20, 5:53 AM)30.14 "Hg (Aug 20, 5:53 AM)
Low50 °F (Aug 19, 4:53 AM)36% (Aug 28, 5:53 PM)29.60 "Hg (Aug 13, 9:53 PM)
Average67 °F71%29.94 "Hg
* Reported Aug 13 8:53 PM — Aug 28 8:53 PM, Gloucester, Weather by CustomWeather, © 2014

Note: Actual official high and low records may vary slightly from our data, if they occured in-between our weather recording intervals... More about our weather records

Advertising

Gloucester weather history for previous 24 hours

 ConditionsComfort  
Time TempWeatherWind HumidityBarometerVisibility
8:53 PM
Aug 28
62 °FClear.9 mph60%29.91 "Hg10 mi
7:53 PM67 °FPassing clouds.7 mph49%29.88 "Hg10 mi
6:53 PM71 °FScattered clouds.12 mph44%29.85 "Hg10 mi
5:53 PM74 °FScattered clouds.21 mph36%29.83 "Hg10 mi
4:53 PM74 °FPartly sunny.14 mph45%29.81 "Hg10 mi
3:53 PM75 °FPartly sunny.9 mph45%29.79 "Hg10 mi
2:53 PM78 °FPartly sunny.14 mph42%29.78 "Hg10 mi
1:53 PM79 °FPartly sunny.13 mph42%29.77 "Hg10 mi
12:53 PM78 °FScattered clouds.15 mph43%29.77 "Hg10 mi
11:53 AM74 °FMostly cloudy.12 mph53%29.78 "Hg10 mi
10:53 AM77 °FScattered clouds.10 mph54%29.79 "Hg10 mi
9:53 AM74 °FSunny.12 mph57%29.80 "Hg10 mi
8:53 AM72 °FSunny.10 mph64%29.80 "Hg10 mi
7:53 AM69 °FPassing clouds.10 mph73%29.80 "Hg10 mi
6:53 AM65 °FClear.8 mph85%29.80 "Hg10 mi
5:53 AM65 °FPassing clouds.7 mph87%29.79 "Hg10 mi
4:53 AM67 °FOvercast.7 mph87%29.78 "Hg10 mi
3:53 AM66 °FPassing clouds.5 mph93%29.78 "Hg10 mi
2:53 AM68 °FClear.7 mph90%29.79 "Hg10 mi
1:53 AM71 °FPassing clouds.7 mph90%29.79 "Hg10 mi
12:53 AM72 °FOvercast.6 mph91%29.80 "Hg10 mi
11:53 PM
Aug 27
71 °FPartly cloudy.6 mph93%29.82 "Hg10 mi
10:53 PM72 °FPassing clouds.6 mph91%29.82 "Hg9 mi
Weather by CustomWeather, © 2014

See weather overviewHow to use our weather pages